Horseheads, NY

12:40 PM EST on January 23, 2017 (GMT -0500)
Elmira-Corning Regional

Weather History for KELM - November, 2012

Change the Weather History Date:

Wednesday, November 7, 2012

  Actual Average Record
Temperature  
Mean Temperature 29 °F -  
Max Temperature 39 °F 49 °F 74 °F (1938)
Min Temperature 19 °F 32 °F 12 °F (1951)
Degree Days  
Heating Degree Days 36    
Moisture  
Dew Point 20 °F    
Average Humidity 70    
Maximum Humidity 89    
Minimum Humidity 45    
Precipitation  
Precipitation 0.00 in - - ()
Sea Level Pressure  
Sea Level Pressure 30.07 in    
Wind  
Wind Speed 2 mph (NNE)    
Max Wind Speed 12 mph    
Max Gust Speed 16 mph    
Visibility 10 miles    
Events      
Averages and records for this station are not official NWS values.
T = Trace of Precipitation, MM = Missing Value Source: NWS Daily Summary

Daily Weather History Graph

Daily Weather History Graph

Search for Another Location

Airport or City:

Trip Planner

Search our weather history database for the weather conditions in past years. The results will help you decide how hot, cold, wet, or windy it might be!

Date:

Astronomy

Nov. 07, 2012 Rise Set
Actual Time 6:48 AM EST 4:53 PM EST
Civil Twilight 6:18 AM EST 5:23 PM EST
Nautical Twilight 5:45 AM EST 5:56 PM EST
Astronomical Twilight 5:12 AM EST 6:29 PM EST
Moon No Moon Rise 1:08 PM EST (11/7)
Length of Visible Light 11h 04m
Length of Day
10h 04m
Last Quarter, 43% of the Moon is Illuminated
Nov 7
Last Quarter
Nov 13
New
Nov 20
First Quarter
Nov 28
Full
Dec 6
Last Quarter

Hourly Weather History & Observations

Time (EST) Temp. Windchill Dew Point Humidity Pressure Visibility Wind Dir Wind Speed Gust Speed Precip Events Conditions
12:53 AM 21.0 °F - 17.1 °F 85% 30.12 in 10.0 mi Calm Calm - N/A   Clear
1:53 AM 21.0 °F - 16.0 °F 81% 30.12 in 10.0 mi Calm Calm - N/A   Clear
2:53 AM 19.9 °F - 16.0 °F 85% 30.10 in 10.0 mi Calm Calm - N/A   Clear
3:53 AM 19.9 °F - 16.0 °F 85% 30.06 in 10.0 mi Calm Calm - N/A   Clear
4:53 AM 19.9 °F - 16.0 °F 85% 30.09 in 10.0 mi Calm Calm - N/A   Clear
5:53 AM 19.9 °F - 16.0 °F 85% 30.08 in 10.0 mi Calm Calm - N/A   Clear
6:53 AM 19.0 °F - 16.0 °F 88% 30.09 in 10.0 mi Calm Calm - N/A   Clear
7:53 AM 21.9 °F - 19.0 °F 89% 30.11 in 10.0 mi Calm Calm - N/A   Clear
8:53 AM 25.0 °F - 21.0 °F 85% 30.10 in 10.0 mi Calm Calm - N/A   Clear
9:53 AM 28.0 °F - 23.0 °F 81% 30.10 in 10.0 mi Calm Calm - N/A   Clear
10:53 AM 32.0 °F - 25.0 °F 75% 30.07 in 10.0 mi Calm Calm - N/A   Clear
11:53 AM 37.0 °F 31.6 °F 23.0 °F 57% 30.04 in 10.0 mi North 6.9 mph - N/A   Clear
12:53 PM 39.0 °F 32.8 °F 19.0 °F 45% 30.02 in 10.0 mi NE 9.2 mph - N/A   Clear
1:53 PM 39.0 °F 31.8 °F 19.9 °F 46% 30.01 in 10.0 mi North 11.5 mph - N/A   Clear
2:53 PM 39.0 °F 32.8 °F 21.0 °F 49% 30.02 in 10.0 mi NNE 9.2 mph 16.1 mph N/A   Clear
3:53 PM 37.0 °F 29.3 °F 19.0 °F 48% 30.04 in 10.0 mi NNE 11.5 mph - N/A   Clear
4:53 PM 34.0 °F 31.0 °F 19.0 °F 54% 30.05 in 10.0 mi NNE 3.5 mph - N/A   Clear
6:53 PM 34.0 °F - 21.9 °F 61% 30.07 in 10.0 mi Calm Calm - N/A   Clear
7:53 PM 33.1 °F - 23.0 °F 66% 30.07 in 10.0 mi Calm Calm - N/A   Clear
8:53 PM 32.0 °F - 23.0 °F 69% 30.06 in 10.0 mi Calm Calm - N/A   Clear
9:53 PM 32.0 °F - 21.9 °F 66% 30.05 in 10.0 mi Calm Calm - N/A   Clear
10:53 PM 32.0 °F 28.7 °F 21.0 °F 64% 30.04 in 10.0 mi Variable 3.5 mph - N/A   Clear
11:53 PM 33.1 °F - 23.0 °F 66% 30.02 in 10.0 mi Calm Calm - N/A   Clear